User: anonymous   Login
Location: Chenereilles
(45.4866°N, 4.0790°E)
Time: 16:38:53
(UTC+00:00)
Language:

USA 229 DEB - Orbit

View from above orbital plane
View from above orbital plane
View from above satellite
View from above satellite

Ground track
Ground track

The orbit data is extracted from the following two-line orbital elements,

1 37391U 11014B   20019.25980774 0.00000000  00000-0  00000-0 0    07
2 37391  63.4418 128.5276 0148000 359.3169   0.6831 13.40796889    04
Epoch (UTC): 19 January 2020 06:14:07
Eccentricity: 0.0148000
inclination: 63.4418°
perigee height: 995 km
apogee height: 1217 km
right ascension of ascending node: 128.5276°
argument of perigee: 359.3169°
revolutions per day: 13.40796889
mean anomaly at epoch: 0.6831°
orbit number at epoch: 0

The dashed part of the orbit path shows where the satellite is in the earth's shadow,  

DLR